Location: Atherton
(17.2661°S, 145.4859°E)
Time: 23:49:48
(UTC+10:00)

Vanguard 1 - Pass Details

Date: 29 June 2025
Orbit: 649 x 3822 km, 34.2° (Epoch: 17 July)

Event Time Altitude Azimuth Distance (km) Brightness Sun altitude
Rises 12:36:02 0° 345° (NNW) 7,067 15.1 49.4°
Reaches altitude 10° 12:43:21 10° 2° (N) 6,501 15.1 49.2°
Maximum altitude 12:56:48 19° 40° (NE) 6,138 14.8 48.6°
Drops below altitude 10° 13:10:24 10° 77° (ENE) 6,727 14.4 47.8°
Sets 13:17:52 0° 92° (E) 7,407 14.4 47.2°
